Theta_e
326 326 327 327 327 327 328 328 328 328 327 327 327 325 324 324 323 316 305 312 314 326 321 309 307 306 307 305 305 303 293 291 294 295 296 298 297 299 301 302 303 308 310 318 328
326 326 326 326 326 326 327 327 327 327 326 326 326 325 324 323 312 307 317 327 327 330 309 305 303 305 301 303 301 296 293 295 296 297 297 299 299 299 298 299 301 313 324 327 327
325 325 325 325 325 325 325 326 326 326 326 325 325 324 323 320 304 305 325 329 330 327 310 308 306 305 300 302 300 298 295 296 297 300 301 299 296 299 297 296 302 310 320 323 324
324 324 324 323 324 324 325 325 325 325 325 324 324 323 322 314 289 309 325 328 329 317 308 306 303 299 298 297 300 296 298 298 300 300 300 300 299 298 299 298 302 313 325 323 322
322 322 322 322 323 323 324 324 325 324 323 323 323 322 313 301 302 313 327 328 322 311 305 303 300 298 296 298 298 296 297 298 299 299 298 300 297 297 298 299 304 313 324 321 321
321 321 321 321 322 323 323 324 324 323 322 323 322 321 304 292 310 316 317 316 312 307 303 303 301 301 298 296 297 296 297 297 297 297 297 298 294 297 299 299 302 313 315 320 321
321 320 320 321 321 322 322 324 323 322 322 322 322 313 300 298 310 312 314 311 308 306 302 304 303 299 298 296 297 295 293 294 295 296 294 296 293 294 297 299 299 302 307 313 319
320 319 319 320 321 321 322 323 322 321 321 322 322 308 295 309 309 310 308 306 307 307 305 305 304 302 299 298 295 292 291 287 292 295 295 293 289 296 298 296 296 297 297 301 309
319 318 319 320 320 320 322 321 320 321 322 322 309 303 294 311 305 309 308 304 304 303 304 305 303 298 296 291 288 288 284 286 289 295 294 292 289 294 295 294 293 293 294 296 300
318 318 319 319 319 320 320 320 320 320 317 314 310 295 299 298 305 307 307 306 302 301 299 299 296 291 290 287 282 285 285 286 288 291 292 290 290 292 294 293 293 293 294 294 297
318 318 319 319 319 320 317 313 304 301 304 298 297 297 298 303 307 303 306 303 301 296 290 294 289 286 289 291 290 289 286 286 288 292 290 289 290 292 293 293 293 294 294 294 295
317 318 318 319 319 319 312 300 300 302 295 301 301 300 304 304 298 301 305 297 296 289 291 289 286 291 293 292 290 288 286 284 289 292 290 288 289 291 293 294 294 295 294 295 295
317 317 318 318 318 314 305 302 307 304 293 297 300 299 300 303 297 298 301 298 293 290 288 287 290 294 292 289 288 286 286 285 287 289 288 286 285 287 291 293 294 294 295 295 295
317 317 317 317 312 309 303 308 309 304 288 290 294 298 302 302 296 303 303 299 294 290 290 289 292 292 289 289 289 285 289 289 288 284 280 285 278 284 288 290 291 293 293 294 296
316 317 317 316 310 304 305 311 310 301 276 292 294 304 302 296 297 297 302 297 291 291 290 287 289 288 288 290 290 287 290 288 287 283 281 280 279 283 286 288 290 291 292 292 295
316 316 316 313 311 309 310 313 303 286 276 288 294 294 294 295 295 297 296 298 296 292 290 289 291 291 290 290 291 291 288 288 285 282 277 280 280 280 284 288 289 290 291 295 296
316 315 313 313 306 311 311 303 285 279 290 286 288 292 291 290 291 292 290 289 287 284 283 286 287 289 291 288 290 289 284 277 276 276 276 281 279 283 287 289 290 292 293 294 295
315 315 312 312 312 310 305 290 278 285 286 291 290 291 287 291 290 290 289 287 289 287 284 282 280 287 290 289 287 286 285 279 274 274 276 279 278 284 289 288 290 293 294 294 294
315 313 310 311 311 309 297 283 281 285 291 288 290 286 286 289 290 288 286 288 289 288 283 282 282 288 290 290 291 286 283 287 279 270 275 278 282 288 290 288 290 292 294 294 295
305 308 307 312 311 304 291 284 286 291 292 291 284 287 283 286 286 286 285 289 288 290 289 287 282 287 288 290 289 287 289 281 280 270 270 275 278 281 285 288 288 292 292 293 295
299 294 300 311 308 297 285 286 289 293 294 290 287 286 286 286 286 286 286 288 291 291 290 288 285 283 287 285 284 285 283 284 284 280 275 272 277 284 287 289 289 290 293 293 294
295 285 298 306 291 292 286 288 293 293 295 293 292 290 288 288 286 286 286 289 293 293 288 289 286 280 283 287 289 287 286 286 280 277 278 278 281 286 287 290 290 290 294 294 295
286 285 295 298 284 286 290 290 291 292 293 292 291 292 292 289 285 289 289 294 293 292 290 291 283 274 279 284 286 284 285 286 285 282 279 275 281 289 288 288 290 291 293 294 293
289 283 286 287 287 289 288 287 288 294 294 295 293 294 291 289 290 287 289 294 294 293 296 295 286 282 279 281 286 284 286 287 286 280 281 281 284 286 288 290 290 291 292 292 293
289 284 285 283 284 289 291 289 287 288 293 295 292 293 290 286 287 288 291 291 293 294 293 292 279 283 282 285 285 283 284 286 285 286 281 285 284 288 288 290 291 292 292 292 293
286 285 286 285 288 289 290 288 288 290 290 290 289 292 291 288 288 285 290 289 288 291 290 290 277 283 278 285 285 281 285 286 287 287 286 286 284 289 289 292 290 292 293 293 293
291 292 289 286 285 285 286 287 289 292 293 294 293 292 291 293 295 294 295 294 293 291 289 288 282 277 272 283 284 281 285 285 287 289 288 284 289 289 287 290 291 292 294 294 295
Wind_Speed
26 25 23 22 22 19 18 16 15 14 12 13 13 10 9 9 6 1 5 8 8 8 5 5 3 4 5 2 1 1 4 2 4 7 6 5 4 3 2 7 4 4 4 11 11
27 26 25 23 21 21 20 18 16 15 14 13 14 14 11 10 3 7 8 11 9 9 7 9 7 6 4 2 1 3 4 3 2 4 6 6 6 6 5 5 5 7 7 8 8
28 26 25 24 22 23 20 18 17 16 15 14 13 12 13 8 3 9 14 10 10 9 5 4 5 6 4 4 3 4 5 2 3 4 8 10 4 4 10 2 7 13 9 6 5
29 28 26 25 24 23 22 20 17 16 15 15 13 12 12 3 7 2 6 19 12 8 2 6 6 7 5 5 4 3 5 2 3 4 5 8 7 6 5 5 6 15 17 8 8
28 27 26 24 24 24 22 20 18 16 15 15 14 13 6 3 7 2 4 12 8 6 6 7 7 6 6 6 2 3 1 5 2 6 5 4 3 4 6 5 6 14 14 12 10
27 26 25 24 24 24 22 20 19 17 17 15 14 12 2 5 3 7 8 8 7 5 5 6 8 6 5 3 7 2 4 4 3 2 3 5 1 1 6 7 10 15 12 12 14
27 26 26 24 25 24 22 20 19 17 16 16 14 4 2 9 5 7 8 5 6 6 6 5 3 4 5 4 2 4 6 2 2 4 3 3 0 6 3 8 10 11 10 10 13
28 28 26 25 24 23 22 21 19 17 15 14 10 1 5 1 5 7 4 4 5 6 3 6 3 5 5 4 3 4 6 4 3 5 1 3 7 6 8 9 9 9 8 9 10
29 27 28 25 24 24 22 21 19 17 15 14 6 3 5 3 6 6 5 7 5 3 1 3 4 4 3 7 4 2 4 3 1 5 3 3 6 3 6 8 9 8 9 8 8
30 28 28 26 26 25 24 21 19 15 9 4 1 4 4 6 6 7 6 7 5 6 5 4 2 4 3 4 6 6 3 4 6 6 3 3 7 3 4 5 9 8 7 9 9
30 30 29 29 28 30 24 15 10 4 5 7 10 4 9 5 5 5 6 7 5 4 6 4 5 7 10 11 6 7 6 6 1 1 4 6 6 10 8 5 8 8 7 6 9
31 32 32 32 30 30 16 9 15 11 8 2 6 3 2 1 5 6 8 7 7 6 5 5 5 9 8 6 5 3 6 3 1 1 3 2 11 11 7 8 8 9 9 9 5
32 32 32 33 30 19 12 2 8 15 7 3 2 6 5 3 4 12 13 5 8 8 7 9 9 7 8 6 7 4 6 5 5 3 1 3 8 7 9 7 8 8 7 7 9
32 32 34 34 21 17 7 4 9 4 6 4 5 6 5 5 3 7 9 8 6 14 9 7 5 14 6 6 7 6 5 6 8 4 3 4 6 6 6 8 7 11 9 8 7
34 34 37 31 16 17 8 6 4 4 7 15 7 6 9 7 9 6 2 1 9 8 8 7 8 7 6 9 9 6 6 8 4 3 4 1 1 10 2 5 9 10 9 8 8
31 32 36 10 11 18 7 7 5 5 7 9 10 11 11 6 2 4 6 1 3 5 5 3 0 3 7 4 7 9 9 9 6 4 2 7 7 8 6 8 5 4 6 9 9
32 32 25 14 15 16 9 6 5 9 11 8 8 13 17 8 4 4 9 6 8 8 5 3 2 2 3 9 7 9 8 3 3 2 7 2 3 9 5 7 7 8 10 9 8
30 31 18 6 18 16 4 7 8 11 10 4 11 17 13 17 3 7 13 13 6 5 6 8 4 6 3 7 10 8 9 8 9 6 5 2 9 9 4 1 0 7 8 7 6
32 14 9 12 20 11 13 15 12 11 9 9 11 18 7 10 11 7 9 18 13 9 8 6 3 2 3 2 11 6 6 6 8 3 4 5 8 9 5 4 1 7 8 8 8
6 14 10 21 21 12 13 16 7 8 13 16 8 6 17 21 8 10 16 10 5 9 2 5 6 2 1 1 2 6 8 4 3 5 4 6 8 8 6 10 6 7 10 9 9
4 5 6 18 15 15 22 17 7 1 16 9 7 7 7 16 10 14 12 3 13 14 4 4 6 2 4 7 9 4 4 3 6 7 7 2 9 8 11 13 16 14 9 9 9
4 4 5 4 13 15 18 11 10 6 3 5 6 6 12 18 8 8 11 11 16 16 17 4 6 5 9 5 4 2 7 8 6 5 2 4 14 3 3 7 10 10 13 9 8
3 2 1 3 14 19 7 18 1 7 6 7 5 5 4 13 10 7 9 2 11 16 18 10 3 4 6 6 3 5 3 5 4 4 9 8 17 2 4 1 6 9 8 8 8
4 3 4 4 3 18 7 22 7 4 5 5 6 6 6 8 3 16 8 2 3 8 10 11 4 12 15 6 10 7 7 10 8 4 11 12 19 4 5 8 7 6 8 9 11
2 2 1 5 1 14 7 16 20 9 3 6 3 13 8 7 7 7 12 3 4 2 6 8 8 5 2 5 6 5 12 15 19 28 11 30 13 17 9 10 11 9 9 13 13
3 4 2 3 8 7 12 10 27 15 9 11 8 7 4 6 8 6 12 6 7 2 5 1 2 5 2 7 5 3 12 22 26 23 19 16 19 6 10 10 7 12 13 13 14
1 2 3 2 4 4 7 4 21 15 4 13 10 13 10 6 6 3 9 10 10 11 6 7 6 5 6 4 6 7 32 15 18 21 24 22 37 5 5 9 13 14 17 18 16
Wind_Direction
197 194 195 183 176 173 180 176 178 178 179 166 162 168 164 138 110 23 214 218 211 178 125 136 163 195 97 321 287 35 58 277 251 171 170 157 124 48 110 103 50 33 144 152 153
194 192 188 186 180 175 178 179 182 178 170 170 158 166 151 152 135 238 227 218 205 162 127 175 170 157 112 215 272 118 130 234 301 166 161 139 126 133 97 106 53 63 37 105 122
191 191 188 185 181 180 178 181 183 177 168 161 163 155 150 166 116 241 194 212 177 177 167 199 154 133 139 139 240 210 189 263 9 355 141 144 130 133 122 187 184 161 157 144 141
192 186 187 189 182 180 176 179 178 174 166 157 159 161 150 170 178 273 284 179 172 181 215 186 165 122 152 170 219 245 211 72 24 0 104 138 149 138 159 173 185 168 161 151 169
192 184 185 188 180 174 174 177 171 166 158 159 157 159 155 166 247 122 131 129 134 170 199 172 138 139 169 178 193 226 270 81 66 62 65 97 106 153 155 148 98 141 156 160 176
188 180 183 179 175 168 170 172 166 161 153 159 162 160 204 184 165 139 142 133 148 168 198 162 184 177 171 179 165 234 131 122 115 84 54 114 97 91 216 160 114 154 168 172 181
181 177 180 171 172 166 164 162 157 153 151 155 160 186 225 221 164 147 145 175 157 166 184 228 182 156 140 114 188 135 96 56 139 182 145 121 191 233 197 162 150 166 180 186 192
176 178 174 163 167 163 158 149 148 144 146 148 147 256 218 131 137 136 176 168 185 205 260 214 103 108 111 131 75 135 85 134 257 155 195 117 249 235 205 159 183 196 204 199 209
175 167 165 156 162 155 146 136 136 136 136 130 113 164 231 142 141 183 148 157 147 152 49 113 91 135 93 127 72 37 174 159 255 208 135 149 250 300 159 163 199 214 218 217 220
168 165 156 154 152 147 133 127 123 118 128 157 214 103 177 209 163 154 189 149 137 119 63 104 103 119 73 94 171 159 177 205 190 217 128 161 260 294 213 179 217 232 235 210 210
162 161 153 149 150 143 134 133 131 116 208 182 172 215 153 158 101 156 151 143 94 94 146 210 123 180 183 189 160 147 174 184 141 293 136 207 255 254 254 224 230 223 239 229 215
160 157 152 147 153 146 161 180 159 140 145 270 194 81 12 109 121 179 120 143 129 173 144 84 208 212 187 187 184 165 162 138 56 111 132 178 252 250 231 225 206 212 223 231 208
162 156 152 148 153 148 185 215 165 129 125 109 225 144 179 105 140 180 155 161 156 176 179 157 216 187 170 175 159 174 168 178 159 163 329 29 297 256 252 223 221 218 211 212 212
159 157 151 146 150 162 201 181 187 96 87 204 198 220 126 157 179 166 180 155 171 189 157 184 227 180 160 183 138 168 181 134 122 99 206 102 275 293 239 232 204 231 208 186 144
161 162 153 152 135 170 168 147 129 56 130 156 179 162 141 169 141 216 136 272 177 164 132 223 150 159 189 184 156 192 133 129 132 102 89 309 42 270 292 248 237 226 209 200 170
158 163 153 131 139 162 132 120 76 86 214 177 152 166 142 180 127 119 132 275 176 131 62 160 308 118 154 61 126 152 81 46 48 75 311 226 168 272 216 221 243 207 182 156 145
161 162 164 146 155 156 141 110 94 183 149 169 167 165 158 154 124 126 154 186 164 128 139 73 38 355 120 78 2 101 88 52 19 355 221 359 226 244 240 228 214 198 169 171 150
159 163 169 144 144 146 106 125 168 191 167 142 150 150 174 142 140 169 148 190 244 129 133 150 194 178 196 153 169 167 159 154 181 196 227 339 234 246 258 306 181 152 147 141 141
158 162 170 151 151 147 157 190 190 171 158 120 121 156 178 176 131 145 192 195 193 185 139 127 222 14 61 121 145 223 198 163 103 34 64 230 289 297 189 222 164 152 146 164 164
143 165 164 167 155 146 174 196 166 178 134 138 150 185 181 175 142 162 170 189 197 191 134 166 118 353 244 134 40 167 152 82 6 127 247 269 267 238 227 230 204 196 194 183 172
56 91 358 167 153 164 196 192 156 195 146 141 148 151 177 177 157 187 180 195 179 195 143 123 104 283 140 214 158 129 177 166 137 158 174 208 258 221 212 200 200 208 190 183 175
40 105 5 234 155 191 193 182 156 137 100 144 121 124 169 170 160 168 197 190 185 171 199 171 115 161 200 243 237 191 196 169 163 220 202 157 256 207 247 239 187 193 187 186 174
91 72 340 309 168 186 139 203 257 155 154 145 136 133 149 165 177 153 185 114 176 171 182 173 203 81 3 341 354 209 204 196 115 71 206 147 257 357 299 149 212 183 174 164 148
128 103 46 27 338 169 166 196 202 170 142 123 121 116 121 151 182 185 158 51 59 187 148 136 153 192 206 201 140 194 192 199 193 167 216 232 244 263 214 194 197 177 163 157 163
31 113 202 147 124 180 165 185 190 177 129 134 159 183 160 148 163 160 167 107 48 67 145 145 206 146 208 95 150 186 191 195 207 225 182 243 241 226 210 203 206 182 167 176 182
128 141 93 64 128 158 175 198 188 195 175 193 153 162 160 153 186 145 143 157 175 103 145 106 244 121 219 210 219 217 208 207 215 221 235 245 258 169 199 210 183 189 181 187 196
355 13 104 99 106 128 180 171 197 176 241 223 195 172 197 163 111 148 157 147 148 152 149 144 126 89 255 161 99 301 228 199 217 216 218 224 240 179 194 207 205 201 194 199 200